Wind_Speed
30 30 30 31 32 32 32 35 38 39 38 38 40 42 48 56 68 80 89 96 100 103 106 106 103 100 98 98 98 98 98 96 93 92 92 91 87 83 80 80 83 86
29 29 28 29 29 30 31 33 36 38 37 36 37 38 39 42 49 59 71 82 90 96 101 105 107 105 102 99 99 99 99 99 96 93 91 88 86 86 85 83 82 84
29 28 28 27 28 29 29 31 34 37 37 36 35 36 37 38 40 44 52 63 74 83 90 97 104 108 107 103 99 98 98 99 100 98 94 89 83 81 82 83 83 84
28 28 27 26 27 28 28 29 32 35 36 36 35 34 35 36 37 38 41 47 56 66 75 83 92 101 107 106 103 99 96 95 97 98 98 96 92 87 85 85 87 87
27 27 26 25 26 27 27 28 31 33 35 36 35 34 34 34 34 36 37 39 44 52 61 69 78 87 96 102 104 103 100 96 93 93 94 95 95 94 91 90 89 89
26 26 25 26 26 26 26 27 29 32 34 35 36 36 35 33 32 33 34 35 37 42 48 56 64 73 81 89 96 99 101 101 98 94 91 90 90 91 93 93 91 89
27 26 26 26 27 26 26 26 28 31 33 34 35 36 36 35 34 32 32 33 34 36 39 44 51 59 67 75 83 89 93 96 100 100 98 93 90 88 88 91 93 93
29 27 26 26 27 26 26 26 27 29 31 32 33 35 36 36 36 35 34 32 32 33 34 36 40 46 53 60 68 76 83 87 91 96 99 100 98 94 89 87 89 92
31 29 27 26 26 26 26 27 27 28 30 31 31 32 34 35 36 36 35 34 33 32 32 33 34 37 42 47 54 62 70 76 81 85 91 96 100 100 97 92 89 89
30 31 29 26 26 26 27 27 27 27 29 31 31 31 31 33 34 35 35 34 34 33 32 32 32 33 35 38 43 49 56 63 70 75 80 86 92 96 98 98 95 91
29 30 30 28 27 27 27 28 28 28 29 30 31 31 30 31 32 33 33 33 34 33 33 32 32 32 32 33 36 39 45 51 58 64 68 73 79 85 91 95 97 95
30 30 30 29 28 28 28 29 29 30 30 30 31 31 31 31 32 32 33 33 34 33 33 33 32 32 32 32 33 35 37 41 46 51 56 61 67 72 79 84 89 92
31 30 29 30 30 29 29 30 30 31 31 31 32 32 33 32 32 33 34 34 35 35 34 33 33 33 33 33 33 34 35 36 39 42 46 51 56 61 67 73 79 84
31 31 30 29 29 30 31 31 31 31 31 32 33 33 34 34 34 33 34 35 36 36 36 35 35 35 34 34 34 35 36 37 38 40 41 44 48 51 56 62 68 74
33 32 31 30 29 30 31 32 32 32 32 32 32 33 34 35 35 34 35 36 37 37 37 37 37 37 37 37 37 38 38 39 40 42 42 43 45 47 49 53 56 61
35 33 32 31 30 29 30 32 33 33 33 32 32 32 32 34 34 35 37 38 38 38 38 37 38 38 39 40 40 41 42 43 44 44 45 45 46 47 48 49 51 53
36 34 33 32 31 30 30 31 32 33 33 33 32 32 32 33 34 35 37 38 38 38 38 38 39 40 41 41 42 44 45 46 47 47 48 48 48 49 50 50 51 52
36 34 32 32 31 30 30 31 32 33 33 33 32 32 32 33 33 34 35 36 36 36 37 38 40 41 42 43 44 45 47 48 48 49 50 50 51 51 51 52 53 53
36 33 31 30 30 30 30 31 32 32 32 32 32 32 31 31 32 33 34 35 35 35 36 38 39 41 42 43 44 45 47 48 49 49 50 51 51 52 53 54 54 55
34 31 30 28 28 28 29 31 32 31 31 30 29 29 29 29 30 31 32 33 33 34 34 35 37 38 41 42 44 45 46 48 49 50 50 51 52 53 54 55 55 56
30 28 27 26 25 26 28 29 29 28 27 26 26 26 26 26 27 27 29 30 30 31 32 33 35 38 40 42 44 45 47 49 50 51 50 50 50 51 51 52 52 52
24 24 24 23 24 25 25 24 23 22 22 21 21 22 22 23 24 26 27 28 30 32 33 34 36 37 39 40 41 43 44 46 46 45 44 44 43 42 43 44 44 44
20 20 20 21 22 21 19 18 17 17 17 18 19 20 21 23 24 25 26 27 28 29 30 30 31 32 33 33 33 34 36 37 37 36 35 34 33 33 34 35 36 38
16 17 17 17 16 14 13 13 13 14 16 17 18 19 19 19 19 19 19 20 20 21 21 22 23 24 25 25 26 27 29 29 28 27 25 24 25 26 28 29 31 33
13 14 13 12 10 10 11 12 13 14 14 14 13 13 12 11 11 11 13 15 16 16 17 18 18 19 20 21 22 23 22 20 17 15 15 16 19 21 23 26 28 30
11 10 8 7 8 10 11 11 10 10 9 8 8 8 8 8 9 10 13 14 15 16 16 15 15 15 15 15 15 14 13 11 10 10 11 14 18 20 22 24 27 29
Wind_Direction
276 273 271 269 268 269 270 271 273 274 272 268 263 260 257 252 248 245 243 241 240 239 238 238 239 239 238 236 236 238 238 239 240 242 244 244 244 244 245 244 242 242
279 277 274 270 268 269 271 271 271 273 274 270 265 262 260 257 253 249 245 243 241 240 239 238 238 239 239 237 236 236 237 238 239 239 241 242 243 244 244 244 244 243
282 280 278 273 269 268 270 272 271 271 273 272 268 263 261 259 256 253 249 246 243 241 240 239 238 238 239 238 236 236 236 237 238 238 238 238 238 239 241 242 243 243
282 280 277 274 272 270 271 271 270 269 270 271 270 267 263 260 257 254 252 249 246 243 242 240 239 238 239 239 239 237 236 236 237 238 238 237 236 236 238 240 242 243
282 279 276 274 274 272 272 271 269 268 267 267 268 267 265 262 259 256 253 251 249 246 244 242 241 239 239 240 240 240 238 238 238 238 239 238 237 237 237 239 241 243
287 282 278 275 273 271 270 270 269 268 266 265 265 265 265 263 261 258 256 254 252 250 247 245 243 242 240 240 241 241 241 240 239 239 240 240 240 239 239 238 239 241
294 289 284 279 275 271 268 268 267 266 266 264 262 262 263 263 262 261 259 256 255 254 252 249 246 244 242 241 241 242 242 242 241 241 240 241 241 242 242 241 241 242
297 294 289 284 279 273 268 265 264 265 265 264 262 261 260 261 261 262 261 259 258 256 255 254 252 248 246 243 242 242 242 243 243 242 242 242 242 243 243 243 244 244
298 296 292 287 280 274 268 265 263 263 264 263 262 259 258 258 258 259 260 260 259 258 256 256 256 254 251 247 244 243 242 243 243 243 243 243 244 244 245 244 244 244
296 296 295 290 282 275 268 264 262 262 262 263 262 259 257 256 256 256 257 258 258 257 256 255 254 255 254 251 248 245 244 243 244 244 243 243 243 244 245 245 245 244
294 294 294 292 286 278 270 264 261 260 259 260 260 259 257 255 255 255 255 255 256 256 255 254 253 253 252 252 250 248 246 245 245 245 245 244 243 243 243 244 245 246
291 291 292 292 290 284 276 267 262 258 257 256 256 257 256 254 253 253 253 253 253 254 254 254 253 252 252 251 250 249 248 247 246 246 245 245 245 244 244 244 245 246
289 289 290 290 290 288 282 275 267 261 257 256 255 255 254 253 252 251 250 251 251 252 253 253 252 252 251 250 249 249 248 248 248 247 246 245 245 245 245 245 245 246
289 288 288 287 288 288 286 281 274 267 261 257 256 254 254 253 251 249 249 250 251 252 252 252 251 251 250 249 248 247 247 246 246 246 246 245 245 245 245 246 246 246
289 288 287 285 285 286 286 284 279 273 266 262 259 257 255 254 252 249 248 248 248 250 251 252 252 251 250 248 248 247 246 245 244 244 244 244 245 245 246 247 247 247
288 288 286 284 284 284 284 283 281 277 272 267 263 260 258 256 253 250 248 248 247 247 248 249 250 251 250 249 249 248 247 246 246 245 245 245 245 246 247 247 248 249
286 286 285 283 282 283 284 283 282 279 275 270 266 263 260 258 255 252 251 250 250 249 249 248 248 248 249 249 249 249 249 248 248 247 247 246 246 247 248 249 249 250
284 285 284 281 281 283 285 285 284 281 276 272 268 264 261 260 259 258 257 257 257 256 255 253 251 249 248 248 249 250 250 250 250 250 250 250 249 249 250 251 252 252
282 283 282 279 279 283 285 286 286 283 277 272 268 266 265 264 263 263 262 261 260 258 257 256 255 254 253 252 252 252 253 253 254 254 254 255 255 255 255 256 256 255
281 282 281 278 279 282 285 285 285 282 276 272 269 268 266 265 264 263 262 262 261 259 258 258 257 257 256 256 257 257 258 259 260 260 260 261 261 261 261 261 260 259
281 281 280 279 280 282 284 284 281 277 273 270 268 267 266 265 264 263 263 263 263 262 261 260 260 260 260 261 262 263 264 264 265 265 265 265 264 264 263 262 261 260
281 280 279 280 283 284 284 282 278 274 271 270 270 270 269 269 269 269 268 268 267 266 265 264 264 263 264 264 265 266 266 267 267 267 267 266 265 263 262 261 259 257
280 279 280 284 286 286 283 279 276 276 277 277 277 277 276 275 275 273 272 271 271 270 269 268 268 268 267 266 267 267 267 268 269 269 268 266 263 261 258 256 253 251
281 282 285 287 285 281 278 279 281 283 284 283 282 281 279 279 278 278 276 275 275 276 276 276 274 273 271 269 268 268 270 271 271 269 264 260 256 254 252 251 250 249
286 287 287 283 278 278 283 288 290 290 289 289 288 286 283 281 283 286 287 287 288 289 288 284 279 276 274 272 269 269 270 270 268 263 258 256 255 255 254 253 252 251
291 286 281 279 283 289 293 295 296 298 302 306 306 301 297 294 292 292 294 295 295 292 286 281 280 279 277 274 269 266 267 269 270 270 265 261 259 257 257 256 254 254
Height
5332 5331 5331 5330 5329 5328 5327 5326 5325 5325 5325 5326 5326 5327 5329 5331 5333 5336 5340 5345 5351 5357 5364 5370 5375 5380 5386 5391 5396 5402 5408 5413 5418 5422 5425 5429 5434 5439 5442 5445 5448 5451
5326 5325 5325 5324 5323 5323 5322 5321 5320 5320 5320 5320 5320 5321 5322 5323 5324 5326 5328 5333 5338 5344 5350 5356 5362 5367 5373 5378 5384 5389 5395 5401 5406 5411 5415 5419 5423 5427 5431 5435 5439 5441
5320 5319 5319 5318 5318 5317 5316 5316 5315 5315 5314 5315 5315 5315 5316 5317 5318 5318 5320 5323 5327 5331 5336 5342 5348 5354 5359 5365 5371 5376 5382 5388 5394 5399 5403 5408 5412 5416 5420 5424 5428 5431
5314 5313 5313 5312 5312 5311 5311 5311 5310 5310 5310 5310 5310 5310 5310 5311 5312 5312 5313 5315 5317 5321 5325 5329 5334 5340 5346 5352 5357 5364 5370 5376 5382 5387 5390 5395 5400 5405 5410 5413 5416 5420
5308 5307 5307 5307 5306 5306 5306 5305 5305 5305 5305 5305 5305 5305 5305 5305 5306 5307 5307 5308 5310 5312 5315 5318 5323 5328 5333 5339 5344 5351 5358 5365 5370 5374 5378 5383 5388 5393 5398 5402 5405 5409
5303 5302 5301 5301 5301 5300 5300 5300 5300 5300 5300 5300 5300 5300 5300 5301 5301 5302 5302 5303 5304 5306 5308 5310 5314 5318 5323 5328 5333 5339 5346 5352 5358 5362 5366 5372 5377 5381 5385 5389 5394 5399
5297 5297 5296 5296 5295 5296 5296 5296 5295 5294 5295 5295 5295 5296 5296 5296 5297 5297 5298 5299 5299 5300 5302 5304 5306 5309 5313 5318 5323 5328 5334 5339 5345 5349 5354 5361 5365 5369 5374 5378 5382 5387
5292 5291 5291 5290 5290 5291 5291 5291 5290 5290 5290 5290 5290 5291 5292 5292 5292 5293 5293 5294 5295 5296 5297 5299 5300 5302 5305 5309 5314 5319 5323 5328 5332 5337 5342 5348 5353 5358 5363 5367 5371 5375
5287 5286 5286 5285 5285 5285 5286 5286 5286 5286 5286 5285 5286 5286 5287 5287 5288 5288 5289 5290 5291 5292 5293 5294 5296 5297 5299 5302 5306 5310 5314 5317 5321 5325 5331 5336 5341 5346 5352 5356 5359 5364
5282 5281 5281 5280 5280 5280 5280 5281 5281 5281 5281 5281 5281 5282 5282 5283 5283 5284 5284 5285 5286 5287 5289 5290 5291 5293 5294 5296 5299 5302 5305 5308 5312 5315 5320 5325 5330 5335 5339 5343 5347 5353
5278 5277 5276 5275 5275 5275 5275 5276 5276 5276 5277 5277 5277 5278 5278 5279 5279 5280 5280 5281 5282 5283 5284 5285 5287 5288 5290 5291 5293 5296 5298 5300 5303 5307 5311 5315 5320 5324 5328 5332 5336 5341
5273 5272 5271 5271 5270 5270 5270 5270 5271 5271 5272 5272 5273 5273 5274 5274 5275 5276 5277 5277 5278 5279 5280 5281 5282 5284 5285 5287 5289 5290 5292 5294 5296 5299 5303 5306 5309 5313 5316 5320 5324 5329
5269 5268 5267 5266 5265 5265 5265 5265 5266 5266 5267 5267 5268 5268 5269 5270 5271 5272 5272 5273 5273 5274 5275 5277 5278 5279 5281 5282 5284 5286 5288 5289 5291 5293 5295 5298 5300 5303 5306 5309 5313 5317
5265 5264 5263 5262 5261 5260 5260 5260 5261 5261 5262 5262 5263 5264 5264 5265 5266 5267 5268 5268 5269 5270 5271 5272 5274 5275 5276 5278 5279 5281 5282 5284 5285 5287 5289 5291 5293 5295 5297 5300 5303 5307
5260 5259 5258 5257 5256 5256 5255 5255 5255 5256 5256 5257 5258 5259 5259 5260 5261 5262 5263 5263 5264 5265 5266 5268 5269 5270 5272 5273 5274 5275 5276 5278 5279 5281 5282 5284 5286 5288 5290 5292 5295 5297
5254 5254 5254 5253 5252 5251 5251 5250 5250 5250 5251 5251 5252 5253 5254 5255 5256 5257 5257 5258 5259 5260 5261 5263 5264 5265 5266 5267 5268 5269 5270 5271 5272 5274 5276 5278 5280 5281 5283 5285 5287 5289
5249 5249 5248 5248 5247 5247 5246 5246 5246 5246 5246 5246 5247 5247 5248 5248 5250 5251 5251 5252 5253 5255 5256 5257 5258 5259 5260 5261 5261 5262 5262 5264 5266 5267 5269 5272 5273 5275 5277 5278 5279 5281
5243 5243 5243 5242 5242 5242 5241 5241 5241 5241 5241 5241 5241 5241 5242 5243 5244 5245 5246 5247 5248 5249 5250 5251 5252 5252 5253 5254 5255 5255 5256 5257 5259 5260 5262 5264 5267 5268 5270 5271 5272 5273
5238 5238 5238 5237 5237 5237 5236 5236 5236 5235 5235 5235 5236 5236 5237 5238 5239 5240 5241 5241 5242 5243 5244 5244 5245 5245 5246 5247 5248 5249 5249 5250 5251 5254 5255 5257 5259 5261 5262 5262 5263 5265
5232 5232 5232 5232 5232 5232 5232 5232 5231 5231 5230 5231 5231 5232 5232 5233 5233 5234 5235 5235 5237 5238 5238 5239 5239 5239 5239 5240 5240 5241 5242 5242 5244 5246 5248 5249 5250 5251 5252 5253 5254 5254
5227 5227 5227 5228 5228 5228 5228 5227 5227 5226 5227 5227 5227 5227 5227 5228 5228 5229 5230 5230 5231 5232 5233 5234 5233 5233 5233 5233 5233 5234 5234 5234 5235 5237 5239 5240 5241 5241 5242 5243 5244 5244
5223 5223 5223 5224 5224 5224 5224 5223 5223 5223 5223 5223 5223 5224 5224 5224 5224 5225 5225 5226 5226 5227 5227 5228 5227 5227 5227 5227 5227 5227 5226 5226 5227 5228 5230 5231 5232 5232 5233 5234 5235 5236
5219 5220 5220 5220 5220 5220 5220 5220 5220 5220 5221 5221 5221 5221 5221 5221 5221 5221 5221 5221 5221 5222 5222 5222 5222 5221 5221 5222 5222 5221 5220 5220 5221 5222 5223 5224 5225 5226 5226 5227 5228 5228
5216 5217 5217 5217 5217 5217 5217 5218 5218 5218 5218 5218 5218 5218 5218 5218 5218 5218 5218 5217 5218 5217 5218 5218 5217 5216 5216 5217 5217 5216 5216 5216 5216 5217 5218 5219 5220 5220 5221 5221 5222 5222
5214 5215 5215 5215 5215 5215 5216 5216 5216 5216 5216 5216 5216 5216 5215 5215 5215 5215 5215 5215 5215 5215 5214 5214 5214 5213 5213 5213 5213 5213 5212 5213 5213 5214 5215 5216 5216 5217 5217 5217 5218 5218
5212 5213 5213 5213 5214 5214 5214 5214 5214 5215 5215 5214 5214 5214 5214 5214 5214 5214 5213 5213 5212 5212 5211 5211 5211 5211 5210 5210 5210 5210 5211 5211 5211 5212 5213 5213 5213 5213 5213 5213 5213 5213